VLG4NY LEBL-EGKK

Flight info

Callsign VLG4NY
Flight time 1h 37m
Altitude 34000
Route NATPI DCT EVNAM DCT AGN DCT SECHE DCT UVELI DCT CNA DCT MANAK DCT EPAPU UM184 EKRAS UT507 REVTU UP88 VASUX
Aircraft A320/M-SDE3FGHIRWY/LB1

Departure

Time 2026-05-04 15:48
Airport Josep Tarradellas Barcelona-El Prat Airport (LEBL)

Arrival

Time 2026-05-04 17:25
Airport London Gatwick Airport (EGKK)
Time Latitude Longitude Altitude Speed Heading
2026-05-04 14:56 41.29076 2.07742 19 ft 0 kts 155°
2026-05-04 15:18 41.29077 2.07742 19 ft 0 kts 155°
2026-05-04 15:26 41.29087 2.07736 19 ft 2 kts 159°
2026-05-04 15:27 41.29102 2.07729 21 ft 2 kts 164°
2026-05-04 15:27 41.29135 2.07722 19 ft 2 kts 187°
2026-05-04 15:28 41.29165 2.07738 21 ft 2 kts 228°
2026-05-04 15:28 41.29174 2.07756 22 ft 2 kts 243°
2026-05-04 15:28 41.29177 2.07763 21 ft 0 kts 246°
2026-05-04 15:34 41.29193 2.07644 19 ft 7 kts 336°
2026-05-04 15:34 41.29239 2.07617 18 ft 8 kts 336°
2026-05-04 15:34 41.29338 2.07566 16 ft 7 kts 18°
2026-05-04 15:35 41.29388 2.07695 15 ft 9 kts 65°
2026-05-04 15:35 41.29413 2.07769 15 ft 9 kts 65°
2026-05-04 15:35 41.29440 2.07848 17 ft 10 kts 65°
2026-05-04 15:36 41.29496 2.08011 15 ft 10 kts 65°
2026-05-04 15:36 41.29525 2.08096 17 ft 10 kts 65°
2026-05-04 15:36 41.29553 2.08176 15 ft 9 kts 65°
2026-05-04 15:37 41.29559 2.08255 16 ft 9 kts 121°
2026-05-04 15:37 41.29510 2.08292 17 ft 8 kts 156°
2026-05-04 15:37 41.29451 2.08327 17 ft 9 kts 156°
2026-05-04 15:37 41.29395 2.08360 19 ft 8 kts 155°
2026-05-04 15:38 41.29343 2.08392 19 ft 8 kts 156°
2026-05-04 15:38 41.29284 2.08427 20 ft 11 kts 156°
2026-05-04 15:38 41.29213 2.08470 22 ft 12 kts 155°
2026-05-04 15:38 41.29125 2.08524 19 ft 16 kts 155°
2026-05-04 15:39 41.29018 2.08589 19 ft 15 kts 155°
2026-05-04 15:39 41.28933 2.08639 18 ft 11 kts 156°
2026-05-04 15:39 41.28869 2.08749 17 ft 9 kts 65°
2026-05-04 15:40 41.28900 2.08838 16 ft 12 kts 66°
2026-05-04 15:40 41.28937 2.08949 17 ft 14 kts 66°
2026-05-04 15:40 41.28981 2.09077 18 ft 16 kts 65°
2026-05-04 15:40 41.29031 2.09222 17 ft 18 kts 66°
2026-05-04 15:41 41.29078 2.09362 19 ft 16 kts 66°
2026-05-04 15:41 41.29120 2.09484 17 ft 13 kts 65°
2026-05-04 15:41 41.29161 2.09600 17 ft 15 kts 65°
2026-05-04 15:41 41.29204 2.09730 17 ft 17 kts 65°
2026-05-04 15:42 41.29250 2.09863 19 ft 11 kts 65°
2026-05-04 15:42 41.29267 2.09913 18 ft 0 kts 65°
2026-05-04 15:42 41.29271 2.09924 17 ft 3 kts 64°
2026-05-04 15:42 41.29283 2.09966 18 ft 7 kts 79°
2026-05-04 15:43 41.29267 2.10041 15 ft 8 kts 110°
2026-05-04 15:43 41.29259 2.10070 16 ft 0 kts 110°
2026-05-04 15:43 41.29255 2.10085 15 ft 0 kts 110°
2026-05-04 15:44 41.29254 2.10087 15 ft 2 kts 110°
2026-05-04 15:44 41.29239 2.10143 16 ft 8 kts 110°
2026-05-04 15:44 41.29244 2.10218 15 ft 10 kts 65°
2026-05-04 15:44 41.29233 2.10298 14 ft 10 kts 150°
2026-05-04 15:45 41.29196 2.10257 16 ft 9 kts 257°
2026-05-04 15:45 41.29187 2.10226 17 ft 0 kts 245°
2026-05-04 15:45 41.29186 2.10225 17 ft 0 kts 245°
2026-05-04 15:45 41.29186 2.10224 17 ft 0 kts 245°
2026-05-04 15:47 41.29123 2.10040 18 ft 58 kts 245°
2026-05-04 15:47 41.28867 2.09290 18 ft 117 kts 245°
2026-05-04 15:47 41.28469 2.08129 88 ft 154 kts 245°
2026-05-04 15:48 41.28021 2.06880 730 ft 149 kts 234°
2026-05-04 15:48 41.27192 2.06114 1344 ft 151 kts 197°
2026-05-04 15:48 41.24838 2.05472 1912 ft 195 kts 191°
2026-05-04 15:49 41.23440 2.05120 2257 ft 211 kts 191°
2026-05-04 15:49 41.21991 2.04731 3038 ft 214 kts 191°
2026-05-04 15:49 41.20527 2.04315 4110 ft 216 kts 193°
2026-05-04 15:49 41.19057 2.03878 5210 ft 219 kts 194°
2026-05-04 15:50 41.17715 2.02937 5754 ft 222 kts 229°
2026-05-04 15:50 41.16864 2.01247 6150 ft 222 kts 236°
2026-05-04 15:50 41.16014 1.99545 7201 ft 221 kts 235°
2026-05-04 15:50 41.15138 1.97875 8217 ft 221 kts 234°
2026-05-04 15:51 41.14249 1.96244 9090 ft 221 kts 233°
2026-05-04 15:51 41.13404 1.94522 9845 ft 225 kts 244°
2026-05-04 15:51 41.12894 1.92490 10365 ft 239 kts 251°
2026-05-04 15:51 41.12424 1.90353 11046 ft 243 kts 251°
2026-05-04 15:52 41.11933 1.88194 11778 ft 246 kts 250°
2026-05-04 15:52 41.11558 1.85963 12506 ft 251 kts 263°
2026-05-04 15:52 41.11698 1.83601 13012 ft 270 kts 280°
2026-05-04 15:52 41.12365 1.81136 13203 ft 296 kts 287°
2026-05-04 15:53 41.13170 1.78500 13338 ft 321 kts 291°
2026-05-04 15:53 41.14490 1.75953 13487 ft 351 kts 310°
2026-05-04 15:53 41.16495 1.73972 13927 ft 369 kts 326°
2026-05-04 15:53 41.18756 1.72305 14522 ft 373 kts 326°
2026-05-04 15:54 41.21031 1.70624 15117 ft 377 kts 327°
2026-05-04 15:54 41.23381 1.69026 15702 ft 381 kts 330°
2026-05-04 15:54 41.25795 1.67533 16265 ft 385 kts 331°
2026-05-04 15:54 41.28266 1.66084 16850 ft 389 kts 332°
2026-05-04 15:55 41.30759 1.64642 17469 ft 393 kts 332°
2026-05-04 15:55 41.33269 1.63178 18051 ft 397 kts 332°
2026-05-04 15:55 41.35809 1.61671 18615 ft 400 kts 331°
2026-05-04 15:55 41.38363 1.60137 19186 ft 403 kts 331°
2026-05-04 15:56 41.40926 1.58583 19701 ft 407 kts 330°
2026-05-04 15:56 41.43504 1.57008 20236 ft 410 kts 330°
2026-05-04 15:56 41.46110 1.55412 20743 ft 413 kts 330°
2026-05-04 15:56 41.48728 1.53811 21225 ft 416 kts 330°
2026-05-04 15:57 41.51370 1.52199 21698 ft 419 kts 330°
2026-05-04 15:57 41.54035 1.50674 22134 ft 425 kts 335°
2026-05-04 15:57 41.56932 1.49669 22595 ft 435 kts 345°
2026-05-04 15:57 41.59928 1.49015 23059 ft 438 kts 346°
2026-05-04 15:58 41.62950 1.48351 23506 ft 441 kts 345°
2026-05-04 15:58 41.65987 1.47678 23882 ft 444 kts 346°
2026-05-04 15:58 41.69033 1.46996 24257 ft 447 kts 345°
2026-05-04 15:58 41.72111 1.46304 24619 ft 450 kts 345°
2026-05-04 15:59 41.75202 1.45609 24987 ft 452 kts 345°
2026-05-04 15:59 41.78315 1.44913 25342 ft 455 kts 346°
2026-05-04 15:59 41.81457 1.44213 25703 ft 458 kts 346°
2026-05-04 15:59 41.84615 1.43511 26065 ft 461 kts 346°
2026-05-04 16:00 41.87787 1.42804 26429 ft 464 kts 346°
2026-05-04 16:00 41.89899 1.42332 26674 ft 465 kts 346°
2026-05-04 16:00 41.94147 1.41376 27157 ft 469 kts 346°
2026-05-04 16:00 41.96322 1.40883 27402 ft 471 kts 346°
2026-05-04 16:01 42.00621 1.39911 27878 ft 475 kts 346°
2026-05-04 16:01 42.03891 1.39174 28222 ft 477 kts 346°
2026-05-04 16:01 42.07178 1.38435 28574 ft 480 kts 346°
2026-05-04 16:01 42.10483 1.37696 28925 ft 483 kts 346°
2026-05-04 16:02 42.12726 1.37193 29256 ft 482 kts 346°
2026-05-04 16:02 42.16033 1.36447 29781 ft 482 kts 346°
2026-05-04 16:02 42.22638 1.34955 30722 ft 481 kts 346°
2026-05-04 16:03 42.25899 1.34217 31145 ft 481 kts 346°
2026-05-04 16:03 42.29198 1.33471 31533 ft 481 kts 346°
2026-05-04 16:03 42.32498 1.32725 31948 ft 481 kts 346°
2026-05-04 16:03 42.35795 1.31977 32388 ft 480 kts 345°
2026-05-04 16:04 42.39085 1.31228 32836 ft 479 kts 345°
2026-05-04 16:04 42.45652 1.29728 33645 ft 479 kts 345°
2026-05-04 16:04 42.48940 1.28976 33901 ft 480 kts 345°
2026-05-04 16:05 42.55581 1.27450 33932 ft 486 kts 345°
2026-05-04 16:06 42.65605 1.25141 33921 ft 487 kts 345°
2026-05-04 16:07 42.79040 1.22434 33931 ft 490 kts 349°
2026-05-04 16:08 42.92672 1.20825 33934 ft 492 kts 350°
2026-05-04 16:09 43.09723 1.18437 33965 ft 495 kts 351°
2026-05-04 16:10 43.23362 1.16551 33940 ft 494 kts 350°
2026-05-04 16:11 43.37070 1.14642 33949 ft 496 kts 350°
2026-05-04 16:12 43.57661 1.11539 33961 ft 493 kts 342°
2026-05-04 16:13 43.63985 1.08289 33967 ft 480 kts 325°
2026-05-04 16:13 43.69671 1.03530 33965 ft 478 kts 322°
2026-05-04 16:14 43.80978 0.93952 33968 ft 478 kts 322°
2026-05-04 16:16 43.95625 0.82906 33964 ft 482 kts 330°
2026-05-04 16:17 44.10837 0.73073 33937 ft 481 kts 330°
2026-05-04 16:18 44.22936 0.65210 33942 ft 481 kts 330°
2026-05-04 16:19 44.38082 0.55326 33948 ft 480 kts 330°
2026-05-04 16:20 44.53181 0.45371 33955 ft 479 kts 329°
2026-05-04 16:22 44.68211 0.35349 33968 ft 478 kts 330°
2026-05-04 16:23 44.86148 0.23335 33963 ft 476 kts 330°
2026-05-04 16:25 45.04073 0.11253 33947 ft 475 kts 329°
2026-05-04 16:26 45.24973 -0.02964 33945 ft 477 kts 329°
2026-05-04 16:28 45.39899 -0.13186 33951 ft 477 kts 329°
2026-05-04 16:29 45.60844 -0.27611 33956 ft 478 kts 328°
2026-05-04 16:30 45.69299 -0.34926 33959 ft 468 kts 315°
2026-05-04 16:31 45.74424 -0.40701 33961 ft 469 kts 315°
2026-05-04 16:32 45.89764 -0.58038 33971 ft 469 kts 315°
2026-05-04 16:33 45.99993 -0.69699 33977 ft 470 kts 316°
2026-05-04 16:34 46.07677 -0.78478 33986 ft 470 kts 316°
2026-05-04 16:35 46.23786 -0.94690 33985 ft 484 kts 337°
2026-05-04 16:36 46.33717 -0.97952 33989 ft 489 kts 344°
2026-05-04 16:37 46.43662 -1.01027 33987 ft 489 kts 344°
2026-05-04 16:38 46.56994 -1.05143 33994 ft 489 kts 344°
2026-05-04 16:39 46.73644 -1.10315 33995 ft 489 kts 344°
2026-05-04 16:40 46.86937 -1.14463 33992 ft 488 kts 344°
2026-05-04 16:41 47.03487 -1.19670 33974 ft 488 kts 344°
2026-05-04 16:43 47.20061 -1.24888 33972 ft 487 kts 344°
2026-05-04 16:43 47.29996 -1.28051 33964 ft 486 kts 345°
2026-05-04 16:45 47.49824 -1.34377 33959 ft 486 kts 345°
2026-05-04 16:46 47.66342 -1.39683 33967 ft 486 kts 345°
2026-05-04 16:47 47.79772 -1.41859 33970 ft 489 kts 355°
2026-05-04 16:48 47.93367 -1.42867 33981 ft 489 kts 355°
2026-05-04 16:49 48.06963 -1.43896 33988 ft 489 kts 355°
2026-05-04 16:50 48.19442 -1.44775 34002 ft 490 kts 355°
2026-05-04 16:51 48.29636 -1.45510 33989 ft 488 kts 355°
2026-05-04 16:52 48.43191 -1.46504 33990 ft 489 kts 355°
2026-05-04 16:53 48.53388 -1.47232 33993 ft 489 kts 355°
2026-05-04 16:54 48.66977 -1.48222 33996 ft 489 kts 355°
2026-05-04 16:55 48.87342 -1.49723 34000 ft 488 kts 355°
2026-05-04 16:56 49.03879 -1.54373 34001 ft 484 kts 346°
2026-05-04 16:57 49.13767 -1.57566 34003 ft 484 kts 346°
2026-05-04 16:58 49.26957 -1.61823 34003 ft 484 kts 346°
2026-05-04 17:00 49.46715 -1.68285 34015 ft 484 kts 346°
2026-05-04 17:01 49.63361 -1.70325 34016 ft 487 kts 13°
2026-05-04 17:02 49.76130 -1.63492 34008 ft 488 kts 20°
2026-05-04 17:03 49.85725 -1.58166 34007 ft 488 kts 20°
2026-05-04 17:03 49.95325 -1.52819 33690 ft 487 kts 20°
2026-05-04 17:04 50.01785 -1.49234 30296 ft 503 kts 20°
2026-05-04 17:04 50.08351 -1.45957 28566 ft 476 kts 17°
2026-05-04 17:05 50.14493 -1.43086 27315 ft 445 kts 17°
2026-05-04 17:05 50.20356 -1.40282 26137 ft 442 kts 17°
2026-05-04 17:06 50.26180 -1.37414 24960 ft 441 kts 17°
2026-05-04 17:06 50.29105 -1.35960 24377 ft 440 kts 17°
2026-05-04 17:07 50.34935 -1.33062 23186 ft 438 kts 17°
2026-05-04 17:07 50.36853 -1.32112 22790 ft 436 kts 17°
2026-05-04 17:07 50.40703 -1.30206 22069 ft 431 kts 17°
2026-05-04 17:07 50.43546 -1.28794 21535 ft 427 kts 17°
2026-05-04 17:08 50.46366 -1.27392 21018 ft 423 kts 17°
2026-05-04 17:08 50.51631 -1.23530 19982 ft 417 kts 36°
2026-05-04 17:08 50.53890 -1.20684 19455 ft 413 kts 41°
2026-05-04 17:09 50.56087 -1.17789 18918 ft 410 kts 40°
2026-05-04 17:09 50.58245 -1.14960 18388 ft 408 kts 40°
2026-05-04 17:09 50.60419 -1.12104 17793 ft 405 kts 40°
2026-05-04 17:10 50.64698 -1.06468 16675 ft 397 kts 40°
2026-05-04 17:10 50.70085 -0.96839 14966 ft 386 kts 51°
2026-05-04 17:11 50.71780 -0.93573 14400 ft 383 kts 51°
2026-05-04 17:11 50.73465 -0.90321 13835 ft 381 kts 52°
2026-05-04 17:11 50.76724 -0.84008 13316 ft 357 kts 51°
2026-05-04 17:12 50.78262 -0.81024 13185 ft 344 kts 52°
2026-05-04 17:12 50.80906 -0.75070 12917 ft 320 kts 68°
2026-05-04 17:13 50.82334 -0.65082 12028 ft 307 kts 81°
2026-05-04 17:14 50.83365 -0.56171 11369 ft 294 kts 81°
2026-05-04 17:14 50.83725 -0.53070 11231 ft 278 kts 81°
2026-05-04 17:14 50.84400 -0.47187 10825 ft 268 kts 81°
2026-05-04 17:15 50.84731 -0.44290 10580 ft 267 kts 81°
2026-05-04 17:15 50.85390 -0.38542 10077 ft 265 kts 81°
2026-05-04 17:16 50.86053 -0.32736 9314 ft 271 kts 81°
2026-05-04 17:16 50.87617 -0.24156 8394 ft 269 kts 46°
2026-05-04 17:17 50.89122 -0.22545 8268 ft 259 kts 17°
2026-05-04 17:17 50.93941 -0.24678 7470 ft 246 kts 326°
2026-05-04 17:18 50.95380 -0.26066 7174 ft 245 kts 326°
2026-05-04 17:18 50.98257 -0.28933 6626 ft 242 kts 317°
2026-05-04 17:19 51.00261 -0.33113 6050 ft 237 kts 301°
2026-05-04 17:19 51.02034 -0.37412 5706 ft 225 kts 301°
2026-05-04 17:20 51.03713 -0.41462 5455 ft 217 kts 306°
2026-05-04 17:20 51.06446 -0.43403 5185 ft 223 kts 350°
2026-05-04 17:20 51.08002 -0.43764 4802 ft 227 kts 351°
2026-05-04 17:21 51.11111 -0.44367 4034 ft 222 kts
2026-05-04 17:21 51.13194 -0.41456 3258 ft 215 kts 81°
2026-05-04 17:22 51.13278 -0.39110 3003 ft 205 kts 89°
2026-05-04 17:22 51.13304 -0.36925 2893 ft 193 kts 89°
2026-05-04 17:23 51.13378 -0.30487 1878 ft 184 kts 89°
2026-05-04 17:23 51.13473 -0.28538 1484 ft 169 kts 77°
2026-05-04 17:23 51.13988 -0.25184 951 ft 151 kts 78°
2026-05-04 17:24 51.14178 -0.23570 651 ft 145 kts 78°
2026-05-04 17:24 51.14792 -0.19212 208 ft 107 kts 77°
2026-05-04 17:25 51.14912 -0.18335 207 ft 54 kts 77°
2026-05-04 17:25 51.15011 -0.17896 212 ft 13 kts 54°
2026-05-04 17:26 51.15116 -0.17761 206 ft 8 kts 356°
2026-05-04 17:26 51.15123 -0.17762 206 ft 0 kts 353°
2026-05-04 17:29 51.15124 -0.17762 206 ft 1 kts 353°
2026-05-04 17:30 51.15214 -0.17481 205 ft 14 kts 78°
2026-05-04 17:31 51.15307 -0.17313 214 ft 10 kts 59°
2026-05-04 17:31 51.15316 -0.17259 205 ft 0 kts 77°
2026-05-04 17:33 51.15360 -0.17251 210 ft 9 kts 359°
2026-05-04 17:33 51.15394 -0.17170 215 ft 10 kts 65°
2026-05-04 17:34 51.15447 -0.16952 205 ft 4 kts 344°
2026-05-04 17:34 51.15471 -0.16963 205 ft 2 kts 348°
2026-05-04 17:35 51.15485 -0.16967 205 ft 0 kts 348°